Regional Weather Roundup
Issued by NWS Pendleton, OR

Home | Current Version | Previous Version | Text Only | Print | Product List | Glossary On
Versions: 1 2 3 4 5 6 7 8 9 10 11 12 13 14 15 16 17 18 19 20 21 22 23 24 25 26 27 28 29 30 31 32 33 34 35 36 37 38 39 40 41 42 43 44 45 46 47 48 49 50
000
ASUS46 KPDT 030225
RWRPDT
PENDLETON REGIONAL WEATHER ROUNDUP
NATIONAL WEATHER SERVICE PENDLETON OREGON
600 PM PST FRI DEC 2 2016

NOTE: FAIR INDICATES FEW OR NO CLOUDS BELOW 12,000 FEET WITH NO
SIGNIFICANT WEATHER AND/OR OBSTRUCTIONS TO VISIBILITY.

# INDICATES UNOFFICIAL STATION AND DATA

WAZ520-030310-
EAST SLOPES OF WASHINGTON CASCADES

CITY            SKY/WX      TMP DP  RH  WIND    PRES   REMARKS
#CLE ELUM HS    N/A         36  34  92  CALM    29.98F
#CLE ELUM LAKE  N/A         38  38  100 W2      30.07F
#GLENWOOD       N/A         42  37  82  S9      30.19F
#MANASTASH CYN  N/A         32  28  85  SW1     29.99F
#NELSON 3SW     N/A         32  31  96  CALM    30.30F
#NILE           N/A         32  30  92  CALM    29.35F
#RONALD 2NW     N/A         35  N/A N/A NW1     29.98F
#TEANAWAY 4NE   N/A         34  33  96  CALM    N/A
#TROUT LAKE 1NE N/A         39  36  89  W5      30.22F
$$

WAZ521-030310-
SIMCOE HIGHLANDS

CITY            SKY/WX      TMP DP  RH  WIND    PRES   REMARKS
#CENTERVILLE 1SWN/A         38  35  89  W5      30.15F
#GOLDENDALE 1NE N/A         40  35  82  SW6     N/A
#GOLDENDALE 4W  N/A         40  26  57  W2      30.15F
#GOODNOE HILLS  N/A         40  36  85  W16     30.01F WCI 32
#LYLE 6NE       N/A         39  38  96  SE1     30.15F
$$

WAZ026-030310-
KITTITAS VALLEY

CITY            SKY/WX      TMP DP  RH  WIND    PRES   REMARKS
ELLENSBURG AP   MOCLDY      32  28  85  E3      30.04F
#ELLENSBURG CWU N/A         33  30  89  CALM    30.06S
#ELLENSBURG 3NE N/A         30  28  92  CALM    30.05F
#ELLENSBURG 1E  N/A         31  N/A N/A CALM    N/A
#KITTITAS 4N    N/A         32  27  82  E1      30.09F
#KITTITAS 3S    N/A         28  26  92  CALM    30.11F
#THORP 6N       N/A         34  32  92  N1      30.12F
$$

WAZ027-030310-
YAKIMA VALLEY

CITY            SKY/WX      TMP DP  RH  WIND    PRES   REMARKS
SUNNYSIDE AP    MOCLDY      38  34  85  E6      30.09F
YAKIMA AIRPORT  CLOUDY      34  30  85  W3      30.07F
YAKIMA-VAGABOND MOCLEAR     33  29  85  CALM    30.05F
#GRANDVIEW      N/A         46  35  65  SW3     30.14F
#MABTON         N/A         47  39  74  S18G32  30.10F WCI 40
#NACHES 2SW     N/A         33  30  89  E1      30.06F
#TERRACE HTS    N/A         34  31  89  CALM    30.08F
#TOPPENISH      N/A         41  36  82  CALM    30.02F
#WEST VALLEY    N/A         36  32  85  CALM    30.09F
#W YAKIMA       N/A         36  32  85  NW2     30.10F
#WHITE SWAN 5E  N/A         37  34  89  CALM    30.09F
#WILEY CITY 3W  N/A         32  27  82  CALM    30.02F
$$

WAZ028-030310-
LOWER COLUMBIA BASIN...WASHINGTON

CITY            SKY/WX      TMP DP  RH  WIND    PRES   REMARKS
PASCO           CLOUDY      46  36  68  S7      30.16F
PROSSER AWOS    N/A         46  37  71  S20G28  30.11F WCI 38
RICHLAND AWOS   CLOUDY      48  35  60  S8      30.12F
#BENTON CITY    N/A         45  35  68  SW6     30.02F
#CONNELL 5N     N/A         42  35  76  SW5     30.14F
#CONNELL 5NW    N/A         42  35  76  S8      30.10F
#ELTOPIA 6NW    N/A         43  36  76  S1      29.07F
#KAHLOTUS       N/A         43  34  70  W6      30.16F
#KENNEWICK 3S   N/A         44  35  70  N6      30.13F
#PATERSON       N/A         43  37  79  CALM    30.15F
#SAGEMOOR 2W    N/A         43  36  76  S7      29.98F
#TOUCHET 2S     N/A         50  35  56  S1      30.14F
#WEST PASCO     N/A         47  36  65  SE5     30.17F
$$

WAZ029-030310-
FOOTHILLS OF THE BLUES...WASHINGTON

CITY            SKY/WX      TMP DP  RH  WIND    PRES   REMARKS
WALLA WALLA AP  CLOUDY      47  31  53  S16G25  30.14F WCI 41
#CLYDE 6NW      N/A         44  34  68  S10     30.17F
#DAYTON SCHOOL  N/A         46  27  47  SW8     30.14F
#LOWDEN 2SE     N/A         49  34  56  S7      30.12F
#PLEASANT VIEW 1N/A         42  34  73  SE16G25 30.19F WCI 34
#PRESCOTT       N/A         47  35  63  SW1     30.18F
#WHITMAN COLLEGEN/A         47  33  58  E9      30.22F
#WAITSBURG 5S   N/A         43  34  70  S7      30.28F
#WAITSBURG 8N   N/A         43  N/A N/A S10     30.14F
#WALLA WALLA U  N/A         48  35  60  CALM    30.19F
#WHITMAN MISSIONN/A         50  36  58  SE1     30.18F
$$

WAZ030-030310-
BLUE MOUNTAINS...WASHINGTON

CITY            SKY/WX      TMP DP  RH  WIND    PRES   REMARKS
#DIXIE 5SE      N/A         39  31  73  S15     30.04F WCI 31
#SKI BLUEWOOD   N/A         29  26  88  SW5     30.08F
$$

ORZ009-041-WAZ024-030310-
COLUMBIA RIVER GORGE

CITY            SKY/WX      TMP DP  RH  WIND    PRES   REMARKS
HOOD RIVER AP   MOCLDY      45  41  86  W10     30.18F
THE DALLES AP   CLOUDY      42  38  86  CALM    30.18F
#ARLINGTON AIRPON/A         43  37  79  W1      30.17F
#ARLINGTON HS   N/A         45  36  70  NW1     30.08F
#CELILO DOT     N/A         44  36  73  SW3     N/A
#LYLE           N/A         44  41  89  NE2     30.20F
#MOSIER 1S      N/A         42  36  79  NW8     N/A
#MURDOCK        N/A         44  40  86  CALM    30.14F
#RUFUS DOT      N/A         45  39  79  NW7     N/A
#SMITHVILLE     N/A         43  39  86  N1      30.14F

$$

ORZ510-030310-
NORTH CENTRAL OREGON

CITY            SKY/WX      TMP DP  RH  WIND    PRES   REMARKS
#ANTELOPE       N/A         33  29  85  CALM    30.14F
#CHENOWITH 1W   N/A         39  38  96  W15     N/A    WCI 31
#COW CYN RST AREN/A         39  N/A N/A SW8     N/A
#DUFUR 9E       N/A         39  34  82  W8      30.24F
#GRASS VALLEY 1SN/A         37  31  79  SW8     30.06F
#KENT DOT       N/A         39  25  57  N13     N/A    WCI 31
#MAUPIN SCHOOL  N/A         44  34  68  S1      30.21F
#MORO SCHOOL    N/A         40  36  85  CALM    30.12F
#SHANIKO 5WSW   N/A         38  23  54  N22     N/A    WCI 27
#SHANIKO 4NW    N/A         36  29  75  SW5     30.13F
#WAPANITIA AIRPON/A         39  33  79  CALM    30.23F
#WASCO DOT      N/A         40  33  76  W6      N/A
#WASCO 5NE      N/A         37  33  85  SW5     30.18F
$$

ORZ511-030310-
CENTRAL OREGON

CITY            SKY/WX      TMP DP  RH  WIND    PRES   REMARKS
BEND AIRPORT    CLOUDY      41  28  59  SW13    30.18F WCI 34
MADRAS AIRPORT  MOCLDY      39  30  70  S7      30.21F
PRINEVILLE AP   CLOUDY      39  30  70  CALM    30.21F
REDMOND AIRPORT CLOUDY      41  27  57  CALM    30.21R
#ASHWOOD SCHOOL N/A         41  33  73  CALM    30.13F
#BEND 1SW       N/A         37  30  75  W2      N/A
#BEND-AWBREY    N/A         39  33  79  W9      30.28F
#BEND-KIM LN    N/A         37  30  75  CALM    30.11F
#CULVER         N/A         41  31  67  S3      30.20F
#CULVER 8W      N/A         40  29  64  S5      30.16F
#LAKE BILLY CHINN/A         43  N/A N/A SW7     30.23F
#MADRAS 4S      N/A         N/A N/A N/A N1      30.24F
#POWELL BUTTE 3EN/A         39  30  70  E3      N/A
#POWELL BUTTE   N/A         40  30  67  CALM    30.12F
#PRINEVILLE 3N  N/A         39  32  76  E3      30.29F

$$


ORZ509-030310-
EAST SLOPES OF OREGON CASCADES

CITY            SKY/WX      TMP DP  RH  WIND    PRES   REMARKS
SISTERS AWOS    N/A         36  28  72  CALM    30.14F
#BLUE BOX PASS  N/A         33  N/A N/A NW2     N/A
#CAMP SHERMAN   N/A         37  31  79  CALM    30.37F
#LA PINE 4NW    N/A         33  26  75  CALM    30.45F
#LAVA BUTTE DOT N/A         35  22  59  SW2     N/A
#SISTERS AIRPOR N/A         35  33  92  CALM    30.17S
#SISTERS ODOT   N/A         37  N/A N/A CALM    N/A
#SISTERS 3N     N/A         33  24  69  CALM    30.17S
#SUNRIVER       N/A         35  30  82  CALM    30.39F
#SUTTLE LK DOT  N/A         31  31  100 NE2     N/A
#TUMALO 3W      N/A         37  29  72  CALM    30.16F
#WANOGA BUTTE D N/A         30  30  100 S5      N/A

$$

ORZ044-030310-
LOWER COLUMBIA BASIN...OREGON

CITY            SKY/WX      TMP DP  RH  WIND    PRES   REMARKS
HERMISTON       CLOUDY      43  36  76  N6      30.16S
#BOARDMAN SCHOOLN/A         44  36  73  CALM    30.15F
#I-84 EX 198 DOTN/A         47  32  56  N17     N/A    WCI 40
#UMATILLA       N/A         44  35  70  CALM    30.10F
$$

ORZ507-030310-
NORTHERN FOOTHILLS OF THE BLUES

CITY            SKY/WX      TMP DP  RH  WIND    PRES   REMARKS
PENDLETON AIRPT CLOUDY      45  31  58  S16     30.15F WCI 38
#ADAMS 3WNW     N/A         42  35  76  CALM    30.21F
#ATHENA         N/A         43  33  67  SW7     30.22F
#CAYUSE         N/A         47  34  60  S15G26  30.17F WCI 41
#HELIX SCHOOL   N/A         41  34  76  N5      30.21F
#HELIX 3N       N/A         41  34  76  S12     30.10F WCI 34
#HOLDMAN 5SE    N/A         45  35  68  S6      30.13F
#HOLDMAN 6E     N/A         42  34  73  E12     29.99F WCI 35
#M-F FERNDALE   N/A         48  32  54  CALM    30.13F
#M-F GROVE ELEM N/A         48  31  51  SE5     30.10F
#M-FREEWATER 5SEN/A         46  33  60  E13     30.13F WCI 40
#PENDLETON DNTN N/A         48  28  46  SW10    30.16S
#PDT AQUATIC CTRN/A         47  31  53  S13     30.16S WCI 41
#PDT SUNRIDGE   N/A         47  33  58  S7      30.17F
#PENDLETON 7NW  N/A         46  34  63  S13     31.56R WCI 40
#PILOT ROCK 1S  N/A         46  27  47  S13     30.15F WCI 40
#PILOT ROCK     N/A         46  32  58  SW13    30.15F WCI 40
#TUTUILLA       N/A         46  34  63  CALM    30.18F
#UMAPINE 2E     N/A         49  35  58  E7      30.12F
#WESTON SCHOOL  N/A         42  29  60  S7      30.01F

$$

ORZ508-030310-
SOUTHERN FOOTHILLS OF THE BLUES

CITY            SKY/WX      TMP DP  RH  WIND    PRES   REMARKS
LEXINGTON       CLOUDY      48  32  54  S17     30.15F WCI 42
#AJAX           N/A         43  25  49  S18G29  27.85F WCI 35
#CONDON SCHOOL  N/A         41  32  70  S9      30.06F
#CONDON 5W      N/A         38  28  67  S16G33  30.07F WCI 29
#HEPPNER EOC    N/A         44  32  62  SE7     30.11F
#HEPPNER 4NE    N/A         41  32  70  S2      30.20S
#LEXINGTON 2SE  N/A         48  33  56  S12     30.10F WCI 43
#MIKKALO        N/A         45  30  55  W2      30.21F
#OLEX 4N        N/A         42  35  76  W6      30.12F
#RUGGS 5NE      N/A         40  30  67  S9      30.30S
#RUGGS 2SW      N/A         41  31  67  S7      30.22F

$$

ORZ502-503-030310-
BLUE MOUNTAINS

CITY            SKY/WX      TMP DP  RH  WIND    PRES   REMARKS
#BATTLE MTN DOT N/A         30  28  92  S8      N/A
#HEPPNER 15SE   N/A         34  29  82  NW2     30.11F
#LADD CYN SMT   N/A         32  24  72  SE16    N/A    WCI 21
#LADD CREEK ODOTN/A         35  20  54  S9      N/A
#LONG CREEK HS  N/A         36  33  89  SW1     30.18F
#N POWDER DOT   N/A         33  25  72  S9      N/A
#PIKES PEAK     N/A         37  28  70  SW21G33 27.99S WCI 26
#TOLLGATE       N/A         27  26  96  CALM    29.94F
#TROY SCHOOL    N/A         36  31  82  CALM    30.13F
#UKIAH          N/A         34  30  85  SW2     30.20F
#WESTON 4E      N/A         36  30  79  SE9     30.20F
$$

ORZ505-030310-
JOHN DAY BASIN

CITY            SKY/WX      TMP DP  RH  WIND    PRES   REMARKS
JOHN DAY        CLOUDY      34  30  85  E8      30.22F
#ANTELOPE 9ESE  N/A         41  32  70  W1      N/A
#DAYVILLE SCHOOLN/A         42  28  57  SE7     30.18F
#MITCHELL       N/A         40  33  76  CALM    30.32F
#MITCHELL 8NW   N/A         38  29  70  W6      30.45F
#MONUMENT HS    N/A         40  31  70  SE1     30.20F
#MT. VERNON 5SE N/A         34  28  78  SE2     30.15F
#SPRAY SCHOOL   N/A         44  N/A N/A E6      N/A
$$

ORZ506-030310-
OCHOCO AND JOHN DAY HIGHLANDS

CITY            SKY/WX      TMP DP  RH  WIND    PRES   REMARKS
#BUCK CREEK DOT N/A         37  30  75  W5      N/A
#HORSE RIDGE DO N/A         37  28  70  SE5     N/A
#KEYES SMT DOT  N/A         35  27  72  SW21G33 N/A    WCI 24
#PAULINA SCHOOL N/A         36  29  75  SE1     N/A
#PINE MTN OBS   N/A         31  28  88  S5      N/A
#PRAIRIE CITY   N/A         33  27  78  CALM    30.39
#SENECA         N/A         30  N/A N/A W5      N/A
#SENECA 9NW     N/A         29  27  92  CALM    30.36F
$$

ORZ049-030310-
GRANDE RONDE VALLEY

CITY            SKY/WX      TMP DP  RH  WIND    PRES   REMARKS
LA GRANDE       CLOUDY      37  21  52  S10     30.19F
#COVE           N/A         38  29  70  S1      30.20F
#COVE SCHOOL    N/A         38  27  64  E1      30.19F
#COVE 6NW       N/A         35  28  75  S3      30.32F
#ELGIN 3N       N/A         35  24  64  S9      30.15F
#IMBLER SCHOOL  N/A         34  28  78  S1      30.14F
#ISLAND CITY 4N N/A         43  42  96  CALM    30.23F
#LADD CYN DOT   N/A         36  27  69  S22     N/A    WCI 25
#UNION 1S       N/A         36  28  72  S7      30.32F
$$

ORZ050-030310-
WALLOWA COUNTY

CITY            SKY/WX      TMP DP  RH  WIND    PRES   REMARKS
JOSEPH AIRPORT  CLOUDY      30  23  75  CALM    30.15F
#IMNAHA SCHOOL  N/A         42  24  48  N12     30.18F WCI 35
#IMNAHA 10S     N/A         38  23  54  SW7     30.15F
#JOSEPH 3N      N/A         29  21  72  CALM    30.14F
#JOSEPH 3W      N/A         27  19  71  CALM    29.95F
#LOSTINE        N/A         30  25  81  CALM    30.10F
#LOSTINE 3SE    N/A         30  25  81  CALM    30.14F
#MT HOWARD 8000 N/A         26  22  85  SW12    30.01F WCI 15
#PROMISE 1S     N/A         31  26  81  CALM    30.41F
#WALLOWA SCHOOL N/A         31  27  85  CALM    30.14F



$$



USA.gov is the U.S. government's official web portal to all federal, state and local government web resources and services.